FW9555 Weather Reports


Display with metric or nautical units.
time (UTC)temp
F
wind
direction
speed
MPH
gust
MPH
rain 1hr
in
rain 24hr
in
rain mn
in
humidity
%
barometer
mb
20260903165620 95 8 2.0 3.0 0.00 0.00 0.00 59 1021.4
20260903165116 94 261 0.0 4.0 0.00 0.00 0.00 61 1021.3
20260903164611 94 331 0.0 5.0 0.00 0.00 0.00 58 1021.4
20260903164107 95 292 2.0 2.0 0.00 0.00 0.00 60 1021.6
20260903163607 95 291 0.0 3.0 0.00 0.00 0.00 56 1021.7
20260903163103 94 346 2.0 4.0 0.00 0.00 0.00 54 1021.6
20260903162559 94 350 3.0 6.0 0.00 0.00 0.00 56 1021.7
20260903162054 94 248 5.0 5.0 0.00 0.00 0.00 60 1021.7
20260903161550 94 295 3.0 4.0 0.00 0.00 0.00 56 1021.8
20260903161045 93 344 4.0 4.0 0.00 0.00 0.00 59 1021.9
20260903160544 93 18 3.0 6.0 0.00 0.00 0.00 61 1021.9
20260903160039 93 22 2.0 2.0 0.00 0.00 0.00 63 1021.7
20260903155538 92 0 1.0 4.0 0.00 0.00 0.00 63 1021.7
20260903155034 93 356 0.0 2.0 0.00 0.00 0.00 66 1021.8
20260903154530 92 311 2.0 5.0 0.00 0.00 0.00 65 1022.0
20260903154026 92 255 3.0 4.0 0.00 0.00 0.00 69 1022.0
20260903153520 92 8 1.0 2.0 0.00 0.00 0.00 72 1021.9
20260903153017 92 15 1.0 1.0 0.00 0.00 0.00 69 1021.9
20260903152513 91 290 0.0 3.0 0.00 0.00 0.00 72 1022.1
20260903152009 90 213 3.0 3.0 0.00 0.00 0.00 72 1022.1
20260903151508 89 353 0.0 3.0 0.00 0.00 0.00 73 1022.1
20260903151002 90 246 0.0 3.0 0.00 0.00 0.00 75 1022.0
20260903150457 89 29 0.0 1.0 0.00 0.00 0.00 73 1022.2
20260903145952 88 345 0.0 3.0 0.00 0.00 0.00 74 1022.3
20260903145447 87 352 0.0 2.0 0.00 0.00 0.00 73 1022.0
20260903144942 88 270 0.0 3.0 0.00 0.00 0.00 74 1021.9
20260903144441 87 262 1.0 3.0 0.00 0.00 0.00 76 1021.9
20260903143937 86 270 1.0 2.0 0.00 0.00 0.00 77 1021.9
20260903143433 86 289 2.0 3.0 0.00 0.00 0.00 78 1021.9
20260903142929 85 15 0.0 0.0 0.00 0.00 0.00 83 1021.8
20260903142425 85 15 0.0 0.0 0.00 0.00 0.00 83 1021.8
20260903141920 84 15 0.0 0.0 0.00 0.00 0.00 84 1021.8
20260903141416 83 270 0.0 0.0 0.00 0.00 0.00 86 1021.9
20260903140912 83 270 0.0 0.0 0.00 0.00 0.00 86 1022.0
20260903140406 82 270 0.0 0.0 0.00 0.00 0.00 87 1021.8
20260903135901 82 270 0.0 0.0 0.00 0.00 0.00 87 1022.1
20260903135352 82 270 0.0 0.0 0.00 0.00 0.00 87 1021.8
20260903134850 82 278 0.0 2.0 0.00 0.00 0.00 87 1021.9
20260903134346 81 0 1.0 3.0 0.00 0.00 0.00 89 1021.8
20260903133843 80 254 0.0 1.0 0.00 0.00 0.00 92 1021.8
20260903133340 80 283 1.0 1.0 0.00 0.00 0.00 93 1022.0
20260903132834 79 337 0.0 0.0 0.00 0.00 0.00 93 1021.8
20260903132330 79 337 0.0 0.0 0.00 0.00 0.00 95 1021.8
20260903131824 78 337 0.0 1.0 0.00 0.00 0.00 95 1022.0
20260903131324 78 279 0.0 0.0 0.00 0.00 0.00 96 1022.1
20260903130823 77 331 0.0 2.0 0.00 0.00 0.00 98 1022.0
20260903130318 76 0 0.0 1.0 0.00 0.00 0.00 99 1022.1
20260903125817 76 0 0.0 0.0 0.00 0.00 0.00 99 1022.1
20260903125312 76 215 0.0 0.0 0.00 0.00 0.00 99 1022.3
20260903124811 76 8 0.0 0.0 0.00 0.00 0.00 99 1022.2
20260903124307 76 291 0.0 0.0 0.00 0.00 0.00 99 1022.2
20260903123806 75 291 0.0 0.0 0.00 0.00 0.00 99 1022.2
20260903123305 75 291 0.0 0.0 0.00 0.00 0.00 99 1022.2
20260903122804 74 291 0.0 0.0 0.00 0.00 0.00 99 1022.2
20260903122259 74 291 0.0 0.0 0.00 0.00 0.00 99 1021.9
20260903121756 73 291 0.0 0.0 0.00 0.00 0.00 99 1022.2
20260903121253 73 291 0.0 0.0 0.00 0.00 0.00 99 1022.1
20260903120749 73 291 0.0 1.0 0.00 0.00 0.00 99 1022.0
20260903120242 73 261 0.0 0.0 0.00 0.00 0.00 99 1022.2
20260903115741 72 279 0.0 0.0 0.00 0.00 0.00 99 1022.2
20260903115236 72 279 0.0 0.0 0.00 0.00 0.00 99 1022.2
20260903114730 72 279 0.0 0.0 0.00 0.00 0.00 99 1022.0
20260903114226 72 279 0.0 0.0 0.00 0.00 0.00 99 1022.1
20260903113721 72 279 0.0 0.0 0.00 0.00 0.00 99 1021.9
20260903113217 72 279 0.0 0.0 0.00 0.00 0.00 99 1022.1
20260903112713 71 279 0.0 0.0 0.00 0.00 0.00 99 1022.0
20260903112209 72 279 0.0 0.0 0.00 0.00 0.00 99 1021.9
20260903111707 72 279 0.0 0.0 0.00 0.00 0.00 99 1022.0
20260903111203 71 279 0.0 0.0 0.00 0.00 0.00 99 1021.7
20260903110658 71 279 0.0 0.0 0.00 0.00 0.00 99 1021.8
20260903110154 72 279 0.0 0.0 0.00 0.00 0.00 99 1021.6
20260903105648 72 279 0.0 0.0 0.00 0.00 0.00 99 1021.5
20260903105143 71 279 0.0 0.0 0.00 0.00 0.00 99 1021.5
20260903104643 71 279 0.0 0.0 0.00 0.00 0.00 99 1021.2
20260903104138 72 279 0.0 0.0 0.00 0.00 0.00 99 1021.4
20260903103634 72 279 0.0 0.0 0.00 0.00 0.00 99 1021.4
20260903103130 72 279 0.0 0.0 0.00 0.00 0.00 99 1021.3
20260903102625 72 279 0.0 0.0 0.00 0.00 0.00 99 1021.4
20260903102124 72 279 0.0 0.0 0.00 0.00 0.00 99 1021.1
20260903101624 72 279 0.0 0.0 0.00 0.00 0.00 99 1021.2
20260903101119 72 294 0.0 0.0 0.00 0.00 0.00 99 1021.1
20260903100614 72 294 0.0 0.0 0.00 0.00 0.00 99 1021.1
20260903100113 72 270 0.0 0.0 0.00 0.00 0.00 99 1021.4
20260903095611 72 352 0.0 0.0 0.00 0.00 0.00 99 1021.3
20260903095111 72 352 0.0 0.0 0.00 0.00 0.00 99 1021.1
20260903094606 72 294 0.0 0.0 0.00 0.00 0.00 99 1021.1
20260903094101 72 294 0.0 1.0 0.00 0.00 0.00 99 1021.2
20260903093556 72 14 0.0 0.0 0.00 0.00 0.00 99 1021.0
20260903093052 72 15 0.0 0.0 0.00 0.00 0.00 99 1021.0
20260903092551 72 15 0.0 1.0 0.00 0.00 0.00 99 1021.0
20260903092046 72 294 0.0 0.0 0.00 0.00 0.00 99 1021.1
20260903091544 72 261 0.0 0.0 0.00 0.00 0.00 99 1021.1
20260903091039 72 261 0.0 0.0 0.00 0.00 0.00 99 1021.0
20260903090535 72 261 0.0 0.0 0.00 0.00 0.00 99 1021.0
20260903090033 72 261 0.0 0.0 0.00 0.00 0.00 99 1021.0
20260903085532 72 261 0.0 0.0 0.00 0.00 0.00 99 1021.2
20260903085028 72 8 0.0 0.0 0.00 0.00 0.00 99 1021.2
20260903084526 72 283 0.0 0.0 0.00 0.00 0.00 99 1021.0
20260903084021 72 283 0.0 0.0 0.00 0.00 0.00 99 1020.9
20260903083516 72 283 0.0 0.0 0.00 0.00 0.00 99 1020.7
20260903083010 72 283 0.0 0.0 0.00 0.00 0.00 99 1020.8
20260903082505 73 283 0.0 0.0 0.00 0.00 0.00 99 1020.7
20260903082000 73 283 0.0 0.0 0.00 0.00 0.00 99 1020.8
20260903081455 73 283 0.0 0.0 0.00 0.00 0.00 99 1020.7
20260903080951 73 283 0.0 0.0 0.00 0.00 0.00 99 1020.7
20260903080447 73 283 0.0 0.0 0.00 0.00 0.00 99 1020.8
20260903075943 73 286 1.0 2.0 0.00 0.00 0.00 99 1020.8
20260903075438 73 0 0.0 0.0 0.00 0.00 0.00 99 1020.9
20260903074933 73 0 0.0 0.0 0.00 0.00 0.00 99 1020.7
20260903074432 73 0 0.0 0.0 0.00 0.00 0.00 99 1020.7
20260903073928 73 0 0.0 0.0 0.00 0.00 0.00 99 1020.7
20260903073423 73 0 0.0 0.0 0.00 0.00 0.00 99 1020.7
20260903072918 73 0 0.0 0.0 0.00 0.00 0.00 99 1020.7
20260903072414 73 0 0.0 0.0 0.00 0.00 0.00 99 1020.5
20260903071911 73 0 0.0 0.0 0.00 0.00 0.00 99 1020.7
20260903071407 73 0 0.0 0.0 0.00 0.00 0.00 98 1020.5
20260903070903 73 0 0.0 0.0 0.00 0.00 0.00 98 1020.4
20260903070357 73 0 0.0 0.0 0.00 0.00 0.00 98 1020.5
20260903065851 73 0 0.0 0.0 0.00 0.00 0.00 98 1020.4
20260903065351 73 0 0.0 0.0 0.00 0.00 0.00 98 1020.4
20260903064850 73 0 0.0 0.0 0.00 0.00 0.00 98 1020.5
20260903064346 73 0 0.0 0.0 0.00 0.00 0.00 98 1020.4
20260903063842 73 0 0.0 0.0 0.00 0.00 0.00 98 1020.4
20260903063337 73 0 0.0 1.0 0.00 0.00 0.00 98 1020.7
20260903062833 73 286 0.0 0.0 0.00 0.00 0.00 98 1020.1
20260903062332 73 286 0.0 0.0 0.00 0.00 0.00 98 1020.5
20260903061829 73 286 0.0 0.0 0.00 0.00 0.00 98 1020.5
20260903061327 74 286 0.0 0.0 0.00 0.00 0.00 98 1020.5
20260903060824 73 286 0.0 0.0 0.00 0.00 0.00 97 1020.1
20260903060323 73 286 0.0 0.0 0.00 0.00 0.00 97 1020.4
20260903055821 73 286 0.0 0.0 0.00 0.00 0.00 97 1020.3
20260903055320 74 286 0.0 0.0 0.00 0.00 0.00 97 1020.5
20260903054815 74 286 0.0 0.0 0.00 0.00 0.00 97 1020.5
20260903054314 74 286 0.0 0.0 0.00 0.00 0.00 97 1020.4
20260903053811 74 286 0.0 0.0 0.00 0.00 0.00 97 1020.3
20260903053306 74 286 0.0 0.0 0.00 0.00 0.00 97 1020.3
20260903052802 74 286 0.0 0.0 0.00 0.00 0.00 97 1020.6
20260903052257 74 286 0.0 0.0 0.00 0.00 0.00 96 1020.6
20260903051752 74 286 0.0 0.0 0.00 0.00 0.00 96 1020.8
20260903051247 74 286 0.0 0.0 0.00 0.00 0.00 96 1020.7
20260903050743 74 286 0.0 0.0 0.00 0.00 0.00 96 1020.5
20260903050242 74 286 0.0 0.0 0.00 0.00 0.00 96 1020.6
20260903045737 74 286 0.0 0.0 0.00 0.00 0.00 96 1020.7
20260903045233 75 286 0.0 0.0 0.00 0.00 0.00 96 1020.3
20260903044729 75 286 0.0 0.0 0.00 0.00 0.00 96 1020.4
20260903044224 75 286 0.0 0.0 0.00 0.00 0.00 95 1020.8
20260903043721 75 286 0.0 0.0 0.00 0.00 0.00 95 1020.7
20260903043221 75 286 0.0 0.0 0.00 0.00 0.00 95 1020.8
20260903042720 75 286 0.0 0.0 0.00 0.00 0.00 95 1020.4
20260903042215 75 286 0.0 0.0 0.00 0.00 0.00 95 1020.7
20260903041711 75 286 0.0 0.0 0.00 0.00 0.00 95 1020.5
20260903041207 75 286 0.0 0.0 0.00 0.00 0.00 95 1020.7
20260903040706 75 286 0.0 0.0 0.00 0.00 0.00 95 1020.8
20260903040202 75 286 0.0 0.0 0.00 0.00 0.00 94 1021.1
20260903035658 75 286 0.0 0.0 0.00 0.00 0.00 93 1021.0
20260903035154 75 286 0.0 0.0 0.00 0.00 0.00 93 1021.0
20260903034653 75 286 0.0 0.0 0.00 0.00 0.00 93 1020.9
20260903034149 75 286 0.0 0.0 0.00 0.00 0.00 93 1020.9
20260903033644 75 286 0.0 0.0 0.00 0.00 0.00 93 1021.0
20260903033143 76 286 0.0 0.0 0.00 0.00 0.00 93 1021.1
20260903032639 76 286 0.0 0.0 0.00 0.00 0.00 93 1021.2
20260903032134 76 286 0.0 0.0 0.00 0.00 0.00 92 1021.4
20260903031630 76 286 0.0 0.0 0.00 0.00 0.00 92 1021.3
20260903031125 76 286 0.0 0.0 0.00 0.00 0.00 92 1021.1
20260903030620 76 286 0.0 0.0 0.00 0.00 0.00 92 1021.2
20260903030116 76 286 0.0 0.0 0.00 0.00 0.00 91 1021.3
20260903025611 76 286 0.0 0.0 0.00 0.00 0.00 91 1021.4
20260903025106 76 286 0.0 0.0 0.00 0.00 0.00 90 1021.5
20260903024601 77 286 0.0 0.0 0.00 0.00 0.00 90 1021.5
20260903024055 77 286 0.0 0.0 0.00 0.00 0.00 90 1021.6
20260903023551 77 286 0.0 0.0 0.00 0.00 0.00 89 1021.4
20260903023046 77 286 0.0 0.0 0.00 0.00 0.00 89 1021.7
20260903022545 77 286 0.0 0.0 0.00 0.00 0.00 89 1021.7
20260903022044 77 286 0.0 0.0 0.00 0.00 0.00 90 1021.6
20260903021539 77 286 0.0 0.0 0.00 0.00 0.00 88 1021.7
20260903021034 77 286 0.0 0.0 0.00 0.00 0.00 88 1021.6
20260903020530 77 286 0.0 0.0 0.00 0.00 0.00 87 1021.9
20260903020029 78 286 0.0 0.0 0.00 0.00 0.00 88 1021.6
20260903015525 78 286 0.0 0.0 0.00 0.00 0.00 88 1021.4
20260903015020 78 286 0.0 0.0 0.00 0.00 0.00 87 1021.5
20260903014514 78 286 0.0 0.0 0.00 0.00 0.00 86 1021.4
20260903014009 78 286 0.0 0.0 0.00 0.00 0.00 87 1021.3
20260903013508 78 286 0.0 0.0 0.00 0.00 0.00 86 1021.1
20260903013009 79 286 0.0 0.0 0.00 0.00 0.00 85 1021.0
20260903012508 79 286 0.0 0.0 0.00 0.00 0.00 85 1021.0
20260903012007 79 286 0.0 0.0 0.00 0.00 0.00 84 1020.9
20260903011501 80 286 0.0 0.0 0.00 0.00 0.00 84 1020.7
20260903010956 80 286 0.0 0.0 0.00 0.00 0.00 84 1020.8
20260903010451 80 286 0.0 0.0 0.00 0.00 0.00 83 1020.7
20260903005949 80 286 0.0 0.0 0.00 0.00 0.00 83 1020.7
20260903005444 80 286 0.0 0.0 0.00 0.00 0.00 81 1020.8
20260903004941 81 286 0.0 0.0 0.00 0.00 0.00 82 1020.5
20260903004435 81 286 0.0 0.0 0.00 0.00 0.00 81 1020.6
20260903003931 81 286 0.0 0.0 0.00 0.00 0.00 80 1020.5
20260903003431 82 286 0.0 0.0 0.00 0.00 0.00 79 1020.6
20260903002926 82 286 0.0 0.0 0.00 0.00 0.00 79 1020.3
20260903002421 82 286 0.0 0.0 0.00 0.00 0.00 78 1020.4
20260903001920 83 286 0.0 0.0 0.00 0.00 0.00 76 1020.5
20260903001415 83 286 0.0 0.0 0.00 0.00 0.00 76 1020.5
20260903000915 84 286 0.0 0.0 0.00 0.00 0.00 75 1020.4
20260903000410 84 286 0.0 0.0 0.00 0.00 0.00 73 1020.4
20260902235908 85 286 0.0 0.0 0.00 0.00 0.00 72 1020.5
20260902235403 85 286 0.0 0.0 0.00 0.00 0.00 72 1020.4
20260902234903 86 286 0.0 0.0 0.00 0.00 0.00 70 1020.3
20260902234358 86 286 0.0 0.0 0.00 0.00 0.00 67 1020.6
20260902233856 87 286 0.0 0.0 0.00 0.00 0.00 67 1020.5
20260902233351 87 286 0.0 0.0 0.00 0.00 0.00 67 1020.3
20260902232850 89 286 0.0 0.0 0.00 0.00 0.00 63 1020.3
20260902232345 90 286 0.0 0.0 0.00 0.00 0.00 62 1020.4
20260902231844 91 286 0.0 0.0 0.00 0.00 0.00 59 1020.4
20260902231340 92 286 0.0 0.0 0.00 0.00 0.00 58 1020.4
20260902230835 94 286 0.0 0.0 0.00 0.00 0.00 55 1020.0
20260902230334 96 286 0.0 0.0 0.00 0.00 0.00 51 1020.3
20260902225828 99 286 0.0 0.0 0.00 0.00 0.00 49 1020.4
20260902225323 98 286 0.0 0.0 0.00 0.00 0.00 50 1020.1
20260902224822 99 286 0.0 0.0 0.00 0.00 0.00 50 1020.0
20260902224317 101 286 0.0 1.0 0.00 0.00 0.00 44 1020.1
20260902223813 101 285 0.0 1.0 0.00 0.00 0.00 45 1020.1
20260902223308 99 353 0.0 0.0 0.00 0.00 0.00 48 1020.3
20260902222807 98 325 0.0 2.0 0.00 0.00 0.00 48 1020.0
20260902222301 100 279 0.0 0.0 0.00 0.00 0.00 46 1020.1
20260902221755 100 285 1.0 2.0 0.00 0.00 0.00 45 1020.3
20260902221254 99 331 0.0 3.0 0.00 0.00 0.00 48 1020.4
20260902220750 98 332 2.0 2.0 0.00 0.00 0.00 48 1020.4
20260902220250 98 5 2.0 2.0 0.00 0.00 0.00 48 1020.4
20260902215745 98 356 2.0 2.0 0.00 0.00 0.00 50 1020.4
20260902215240 100 15 0.0 3.0 0.00 0.00 0.00 45 1020.5
20260902214736 101 254 0.0 0.0 0.00 0.00 0.00 44 1020.4
20260902214235 100 234 0.0 2.0 0.00 0.00 0.00 44 1020.4
20260902213731 99 334 0.0 2.0 0.00 0.00 0.00 45 1020.5
20260902213231 101 337 1.0 1.0 0.00 0.00 0.00 46 1020.4
20260902212730 102 277 0.0 2.0 0.00 0.00 0.00 45 1020.5
20260902212227 103 348 0.0 3.0 0.00 0.00 0.00 40 1020.4
20260902211723 103 270 0.0 0.0 0.00 0.00 0.00 46 1020.5
20260902211218 100 270 0.0 3.0 0.00 0.00 0.00 45 1020.6
20260902210712 102 270 0.0 2.0 0.00 0.00 0.00 46 1020.7
20260902210208 101 283 0.0 0.0 0.00 0.00 0.00 45 1020.6
20260902205705 99 276 2.0 2.0 0.00 0.00 0.00 44 1020.8
20260902205201 97 343 2.0 3.0 0.00 0.00 0.00 46 1020.7
20260902204655 98 288 3.0 3.0 0.00 0.00 0.00 45 1020.8
20260902204150 97 296 3.0 4.0 0.00 0.00 0.00 42 1020.7
20260902203645 97 286 1.0 4.0 0.00 0.00 0.00 44 1020.6
20260902203140 96 320 2.0 3.0 0.00 0.00 0.00 44 1020.6
20260902202635 97 331 0.0 4.0 0.00 0.00 0.00 46 1020.8
20260902202132 96 307 0.0 4.0 0.00 0.00 0.00 45 1020.7
20260902201628 97 352 1.0 4.0 0.00 0.00 0.00 47 1020.6
20260902201127 98 54 0.0 2.0 0.00 0.00 0.00 49 1020.9
20260902200621 97 15 0.0 4.0 0.00 0.00 0.00 46 1020.8
20260902200118 97 297 2.0 2.0 0.00 0.00 0.00 48 1020.9
20260902195608 96 19 2.0 3.0 0.00 0.00 0.00 49 1020.8
20260902195107 96 304 0.0 4.0 0.00 0.00 0.00 50 1021.0
20260902194606 96 352 0.0 7.0 0.00 0.00 0.00 50 1021.0
20260902194101 96 294 1.0 5.0 0.00 0.00 0.00 52 1021.1
20260902193558 96 319 0.0 3.0 0.00 0.00 0.00 55 1021.2
20260902193057 96 286 0.0 1.0 0.00 0.00 0.00 54 1021.0
20260902192555 97 280 0.0 2.0 0.00 0.00 0.00 56 1021.3
20260902192054 97 4 2.0 3.0 0.00 0.00 0.00 54 1021.2
20260902191549 98 294 0.0 3.0 0.00 0.00 0.00 52 1021.2
20260902191044 98 0 2.0 3.0 0.00 0.00 0.00 51 1021.3
20260902190540 99 291 0.0 0.0 0.00 0.00 0.00 51 1021.3
20260902190035 97 340 0.0 2.0 0.00 0.00 0.00 54 1021.5
20260902185531 95 270 0.0 0.0 0.00 0.00 0.00 55 1021.5
20260902185027 96 246 3.0 5.0 0.00 0.00 0.00 51 1021.7
20260902184521 98 75 1.0 2.0 0.00 0.00 0.00 53 1021.7
20260902184016 98 23 0.0 3.0 0.00 0.00 0.00 52 1021.7
20260902183513 99 291 0.0 0.0 0.00 0.00 0.00 52 1021.6
20260902183009 98 0 0.0 2.0 0.00 0.00 0.00 54 1021.7
20260902182505 98 286 0.0 1.0 0.00 0.00 0.00 52 1021.9
20260902182000 97 26 0.0 0.0 0.00 0.00 0.00 56 1021.9
20260902181456 95 0 0.0 3.0 0.00 0.00 0.00 52 1021.8
20260902180950 95 254 0.0 5.0 0.00 0.00 0.00 51 1021.8
20260902180445 95 345 0.0 4.0 0.00 0.00 0.00 55 1022.0
20260902175942 96 59 2.0 3.0 0.00 0.00 0.00 54 1022.1
20260902175441 95 17 0.0 2.0 0.00 0.00 0.00 58 1022.1
20260902174937 94 340 1.0 3.0 0.00 0.00 0.00 55 1022.0
20260902174434 94 283 3.0 5.0 0.00 0.00 0.00 57 1022.0
20260902173929 94 349 2.0 6.0 0.00 0.00 0.00 56 1022.2
20260902173428 94 322 2.0 3.0 0.00 0.00 0.00 53 1022.4
20260902172924 95 254 0.0 5.0 0.00 0.00 0.00 54 1022.2
20260902172423 94 15 0.0 3.0 0.00 0.00 0.00 53 1022.2
20260902171918 94 279 2.0 5.0 0.00 0.00 0.00 52 1022.3
20260902171413 94 57 3.0 3.0 0.00 0.00 0.00 53 1022.5
20260902170909 95 324 0.0 2.0 0.00 0.00 0.00 56 1022.4
20260902170405 93 270 2.0 4.0 0.00 0.00 0.00 53 1022.3
20260902165900 94 354 0.0 2.0 0.00 0.00 0.00 56 1022.5